contact:dominique.lefevre@mio.osupytheas.fr, maurice.libes@osupytheas.fr, didier.mallarino@osupytheas.fr
Project:EMSO http://www.emso-fr.org/EMSO-France
Depth: 2436.0 m
Title:EMSO Ligure Ouest : Data MII capteur AQUADOPP
Date,Latitude,Longitude,X_East,Y_North,Z_Up,Amplitude_X,Amplitude_Y,Amplitude_Z,Batterie,SoundSpeed,Heading,Pitch,Roll,Pressure,TIS,Speed,Direction
, degrees North, degrees East, m.s-1, m.s-1,m.s-1, 1, 1, 1, Volt, m.s-1, degree, degree, degree, dbar, degree_C, m.s-1, degree
2020-08-01T00:04:03,42.805,6.029,-0.025,0.0,0.03,104.0,106.0,102.0,13.4,1505.3,325.0,-0.7,1.8,2470.348,13.31,0.025,270.0
2020-08-01T00:07:03,42.805,6.029,-0.052,-0.001,-0.035,105.0,106.0,101.0,13.4,1505.3,323.7,-0.8,1.8,2470.331,13.31,0.052,268.9
2020-08-01T00:10:03,42.805,6.029,-0.022,-0.032,-0.025,105.0,106.0,102.0,13.3,1505.3,324.3,-0.7,1.9,2470.338,13.32,0.038,214.5
2020-08-01T00:13:03,42.805,6.029,-0.027,-0.024,-0.006,105.0,105.0,101.0,13.4,1505.3,324.7,-0.7,1.8,2470.371,13.32,0.036,228.4
2020-08-01T00:16:03,42.805,6.029,-0.03,-0.023,-0.015,104.0,107.0,102.0,13.3,1505.3,326.1,-0.7,1.8,2470.327,13.32,0.037,232.5
2020-08-01T00:19:03,42.805,6.029,-0.036,-0.013,0.001,104.0,106.0,102.0,13.4,1505.3,324.9,-0.7,1.8,2470.337,13.32,0.038,250.1
2020-08-01T00:22:03,42.805,6.029,-0.025,-0.021,0.008,104.0,106.0,101.0,13.4,1505.3,325.9,-0.7,1.8,2470.363,13.32,0.032,230.0
2020-08-01T00:25:03,42.805,6.029,-0.031,-0.002,-0.009,105.0,105.0,103.0,13.4,1505.3,326.4,-0.7,1.8,2470.318,13.32,0.031,266.3
2020-08-01T00:28:03,42.805,6.029,-0.043,0.002,0.005,105.0,106.0,103.0,13.3,1505.3,326.8,-0.7,1.8,2470.331,13.33,0.043,272.7
2020-08-01T00:31:03,42.805,6.029,-0.03,0.004,0.027,105.0,107.0,102.0,13.4,1505.3,323.7,-0.7,1.8,2470.315,13.33,0.03,277.6
2020-08-01T00:34:03,42.805,6.029,-0.047,0.001,-0.017,104.0,107.0,102.0,13.4,1505.3,326.6,-0.7,1.8,2470.336,13.32,0.047,271.2
2020-08-01T00:37:03,42.805,6.029,-0.019,0.0,-0.02,104.0,105.0,102.0,13.4,1505.3,325.5,-0.7,1.8,2470.326,13.32,0.019,270.0
2020-08-01T00:40:03,42.805,6.029,-0.039,-0.016,-0.004,105.0,106.0,101.0,13.4,1505.3,324.4,-0.7,1.8,2470.319,13.33,0.042,247.7
2020-08-01T00:43:03,42.805,6.029,-0.025,-0.001,-0.004,104.0,106.0,101.0,13.4,1505.3,324.5,-0.7,1.8,2470.368,13.32,0.025,267.7
2020-08-01T00:46:03,42.805,6.029,-0.035,-0.001,-0.032,104.0,107.0,101.0,13.4,1505.3,326.7,-0.7,1.8,2470.34,13.32,0.035,268.4
2020-08-01T00:49:03,42.805,6.029,-0.045,-0.021,-0.015,104.0,108.0,102.0,13.4,1505.3,324.5,-0.7,1.9,2470.314,13.33,0.049,245.0
2020-08-01T00:52:03,42.805,6.029,-0.055,0.007,-0.012,105.0,107.0,102.0,13.4,1505.3,325.6,-0.7,1.8,2470.323,13.33,0.055,277.3
2020-08-01T00:55:03,42.805,6.029,-0.041,-0.015,-0.006,105.0,106.0,102.0,13.3,1505.3,324.1,-0.7,1.8,2470.326,13.33,0.043,249.9
2020-08-01T00:58:03,42.805,6.029,-0.042,0.008,0.013,104.0,106.0,102.0,13.4,1505.3,324.8,-0.7,1.8,2470.322,13.33,0.042,280.8
2020-08-01T01:04:03,42.805,6.029,-0.016,-0.02,-0.031,106.0,108.0,103.0,13.4,1505.3,323.9,-0.7,1.8,2470.346,13.31,0.025,218.7
2020-08-01T01:07:03,42.805,6.029,-0.018,-0.024,0.018,104.0,106.0,102.0,13.4,1505.3,325.3,-0.7,1.8,2470.328,13.31,0.03,216.9
2020-08-01T01:10:03,42.805,6.029,-0.026,0.011,-0.009,104.0,106.0,101.0,13.4,1505.3,328.5,-0.7,1.8,2470.364,13.32,0.028,292.9
2020-08-01T01:13:03,42.805,6.029,-0.039,-0.024,-0.031,104.0,106.0,102.0,13.4,1505.3,324.3,-0.7,1.8,2470.36,13.32,0.045,238.4
2020-08-01T01:16:03,42.805,6.029,-0.02,-0.021,-0.015,103.0,106.0,103.0,13.4,1505.3,323.4,-0.7,1.8,2470.381,13.32,0.028,223.6
2020-08-01T01:19:03,42.805,6.029,-0.041,-0.012,-0.02,105.0,108.0,102.0,13.4,1505.3,327.2,-0.7,1.9,2470.33,13.33,0.042,253.7
2020-08-01T01:22:03,42.805,6.029,-0.022,0.004,0.01,106.0,107.0,100.0,13.4,1505.3,327.6,-0.7,1.8,2470.361,13.33,0.022,280.3
2020-08-01T01:25:03,42.805,6.029,-0.024,-0.006,-0.016,105.0,107.0,101.0,13.4,1505.3,325.8,-0.7,1.9,2470.327,13.33,0.024,256.0
2020-08-01T01:28:03,42.805,6.029,-0.046,-0.023,-0.01,105.0,106.0,103.0,13.4,1505.3,327.8,-0.7,1.8,2470.341,13.33,0.051,243.4
2020-08-01T01:31:03,42.805,6.029,-0.051,-0.007,-0.023,105.0,107.0,102.0,13.4,1505.3,325.9,-0.7,1.8,2470.335,13.33,0.051,262.2
2020-08-01T01:34:03,42.805,6.029,-0.035,0.004,-0.033,105.0,107.0,102.0,13.3,1505.3,323.6,-0.7,1.8,2470.347,13.33,0.035,276.5
2020-08-01T01:37:03,42.805,6.029,-0.035,-0.012,-0.017,104.0,107.0,102.0,13.3,1505.3,324.6,-0.7,1.8,2470.351,13.33,0.037,251.1
2020-08-01T01:40:03,42.805,6.029,-0.023,0.007,-0.013,105.0,106.0,103.0,13.4,1505.3,324.2,-0.7,1.8,2470.335,13.33,0.024,286.9
2020-08-01T01:43:03,42.805,6.029,-0.044,-0.005,-0.014,104.0,108.0,102.0,13.4,1505.3,326.9,-0.7,1.8,2470.339,13.33,0.044,263.5
2020-08-01T01:46:03,42.805,6.029,-0.051,-0.014,-0.036,105.0,107.0,102.0,13.4,1505.3,327.1,-0.7,1.8,2470.373,13.33,0.052,254.7
2020-08-01T01:49:03,42.805,6.029,-0.053,-0.007,-0.038,105.0,108.0,101.0,13.4,1505.3,324.1,-0.7,1.8,2470.349,13.33,0.053,262.5
2020-08-01T01:52:03,42.805,6.029,-0.03,0.007,-0.028,105.0,107.0,102.0,13.4,1505.3,328.0,-0.7,1.8,2470.374,13.33,0.03,283.1
2020-08-01T01:55:03,42.805,6.029,-0.018,0.004,0.008,104.0,107.0,102.0,13.4,1505.3,328.5,-0.7,1.9,2470.336,13.33,0.018,282.5
2020-08-01T01:58:03,42.805,6.029,-0.019,0.011,-0.023,104.0,106.0,103.0,13.4,1505.3,325.7,-0.7,1.9,2470.309,13.33,0.021,300.1
2020-08-01T02:04:03,42.805,6.029,-0.012,0.008,-0.007,106.0,107.0,102.0,13.4,1505.3,327.9,-0.7,1.8,2470.379,13.31,0.014,303.7
2020-08-01T02:07:03,42.805,6.029,-0.012,0.001,0.011,105.0,108.0,102.0,13.4,1505.3,325.4,-0.7,1.9,2470.43,13.32,0.012,274.8
2020-08-01T02:10:03,42.805,6.029,-0.042,-0.009,0.004,106.0,107.0,103.0,13.4,1505.3,326.6,-0.7,1.8,2470.374,13.32,0.042,257.9
2020-08-01T02:13:03,42.805,6.029,-0.006,-0.005,0.001,105.0,107.0,102.0,13.3,1505.3,323.7,-0.6,1.8,2470.377,13.33,0.007,230.2
2020-08-01T02:16:03,42.805,6.029,-0.037,-0.004,0.019,104.0,108.0,103.0,13.4,1505.3,323.8,-0.7,1.8,2470.348,13.33,0.037,263.8
2020-08-01T02:19:03,42.805,6.029,-0.04,0.013,-0.047,105.0,109.0,101.0,13.4,1505.3,326.0,-0.7,1.8,2470.383,13.33,0.042,288.0
2020-08-01T02:22:03,42.805,6.029,-0.002,-0.002,-0.018,105.0,108.0,102.0,13.4,1505.3,326.2,-0.7,1.8,2470.349,13.33,0.002,225.0
2020-08-01T02:25:03,42.805,6.029,-0.021,-0.011,-0.012,105.0,107.0,102.0,13.4,1505.3,323.3,-0.8,1.8,2470.359,13.33,0.023,242.4
2020-08-01T02:28:03,42.805,6.029,-0.011,0.003,-0.018,106.0,109.0,104.0,13.4,1505.3,324.8,-0.7,1.8,2470.367,13.33,0.011,285.3
2020-08-01T02:31:03,42.805,6.029,-0.048,0.003,-0.036,104.0,108.0,102.0,13.4,1505.3,324.2,-0.7,1.8,2470.375,13.33,0.048,273.6
2020-08-01T02:34:03,42.805,6.029,-0.029,0.013,-0.026,105.0,108.0,103.0,13.4,1505.3,327.7,-0.7,1.8,2470.367,13.33,0.031,294.1
2020-08-01T02:37:03,42.805,6.029,-0.017,0.011,0.002,105.0,107.0,102.0,13.4,1505.3,327.2,-0.7,1.8,2470.375,13.33,0.02,302.9
2020-08-01T02:40:03,42.805,6.029,-0.082,0.004,-0.027,106.0,108.0,101.0,13.4,1505.3,323.4,-0.7,1.8,2470.326,13.33,0.082,272.8
2020-08-01T02:43:03,42.805,6.029,-0.005,0.002,0.0,105.0,109.0,101.0,13.4,1505.3,325.0,-0.7,1.8,2470.404,13.33,0.005,291.8
2020-08-01T02:46:03,42.805,6.029,0.01,0.001,0.035,105.0,107.0,101.0,13.4,1505.3,326.8,-0.7,1.8,2470.37,13.33,0.01,84.3
2020-08-01T02:49:03,42.805,6.029,-0.05,0.004,-0.05,106.0,107.0,102.0,13.4,1505.3,326.1,-0.7,1.8,2470.31,13.33,0.05,274.6
2020-08-01T02:52:03,42.805,6.029,-0.005,0.006,0.032,106.0,106.0,102.0,13.3,1505.3,326.0,-0.7,1.8,2470.375,13.33,0.007,320.2
2020-08-01T02:55:03,42.805,6.029,-0.046,0.003,-0.011,106.0,107.0,102.0,13.4,1505.3,326.0,-0.7,1.9,2470.351,13.33,0.046,273.7
2020-08-01T02:58:03,42.805,6.029,-0.029,0.0,0.008,105.0,106.0,103.0,13.3,1505.3,326.0,-0.7,1.8,2470.359,13.33,0.028,270.0
2020-08-01T03:04:03,42.805,6.029,-0.005,-0.005,0.0,105.0,107.0,103.0,13.3,1505.3,326.0,-0.7,1.8,2470.383,13.31,0.007,225.0
2020-08-01T03:07:03,42.805,6.029,-0.019,0.003,0.004,105.0,108.0,101.0,13.3,1505.3,324.9,-0.7,1.8,2470.421,13.32,0.019,279.0
2020-08-01T03:10:03,42.805,6.029,-0.028,0.001,-0.009,105.0,108.0,102.0,13.3,1505.3,326.6,-0.7,1.8,2470.412,13.32,0.028,272.0
2020-08-01T03:13:03,42.805,6.029,-0.043,0.019,-0.012,105.0,108.0,101.0,13.4,1505.3,324.1,-0.7,1.8,2470.404,13.33,0.047,293.8
2020-08-01T03:16:03,42.805,6.029,-0.018,0.0,0.008,105.0,108.0,102.0,13.4,1505.3,326.2,-0.7,1.8,2470.352,13.33,0.018,270.0
2020-08-01T03:19:03,42.805,6.029,-0.001,0.0,0.015,106.0,108.0,102.0,13.4,1505.3,326.8,-0.7,1.9,2470.428,13.33,0.001,270.0
2020-08-01T03:22:03,42.805,6.029,-0.025,0.006,-0.019,105.0,109.0,100.0,13.4,1505.3,326.9,-0.7,1.8,2470.393,13.33,0.025,283.5
2020-08-01T03:25:03,42.805,6.029,-0.016,-0.01,-0.034,104.0,109.0,102.0,13.4,1505.3,327.6,-0.7,1.8,2470.437,13.33,0.018,238.0
2020-08-01T03:28:03,42.805,6.029,-0.018,0.007,0.002,105.0,107.0,102.0,13.4,1505.3,326.3,-0.7,1.8,2470.363,13.33,0.019,291.2
2020-08-01T03:31:03,42.805,6.029,-0.027,0.009,0.008,105.0,107.0,102.0,13.4,1505.3,326.1,-0.7,1.8,2470.371,13.33,0.028,288.4
2020-08-01T03:34:03,42.805,6.029,-0.021,-0.001,-0.041,103.0,107.0,101.0,13.4,1505.3,325.9,-0.7,1.8,2470.393,13.33,0.021,267.3
2020-08-01T03:37:03,42.805,6.029,-0.046,0.0,-0.037,103.0,105.0,103.0,13.3,1505.3,326.3,-0.7,1.8,2470.385,13.33,0.046,270.0
2020-08-01T03:40:03,42.805,6.029,-0.01,0.01,-0.005,103.0,108.0,101.0,13.4,1505.3,328.4,-0.7,1.8,2470.368,13.33,0.014,315.0
2020-08-01T03:43:03,42.805,6.029,-0.034,0.0,-0.021,104.0,107.0,102.0,13.3,1505.3,327.6,-0.7,1.9,2470.374,13.33,0.034,270.0
2020-08-01T03:46:03,42.805,6.029,-0.008,0.012,-0.02,104.0,106.0,101.0,13.3,1505.3,327.3,-0.7,1.8,2470.373,13.33,0.014,326.3
2020-08-01T03:49:03,42.805,6.029,-0.025,0.005,-0.003,105.0,106.0,100.0,13.4,1505.3,325.7,-0.7,1.9,2470.359,13.33,0.025,281.3
2020-08-01T03:52:03,42.805,6.029,0.014,0.013,0.015,104.0,107.0,101.0,13.4,1505.3,327.6,-0.7,1.9,2470.384,13.33,0.019,47.1
2020-08-01T03:55:03,42.805,6.029,-0.023,-0.003,-0.008,103.0,106.0,101.0,13.4,1505.3,327.0,-0.7,1.9,2470.39,13.33,0.023,262.6
2020-08-01T03:58:03,42.805,6.029,-0.035,0.026,-0.035,103.0,106.0,101.0,13.4,1505.3,324.6,-0.7,1.8,2470.387,13.33,0.043,306.6
2020-08-01T04:04:03,42.805,6.029,-0.045,-0.002,-0.046,103.0,107.0,100.0,13.4,1505.3,323.3,-0.7,1.8,2470.402,13.32,0.045,267.5
2020-08-01T04:07:03,42.805,6.029,0.015,0.015,-0.001,104.0,107.0,101.0,13.4,1505.3,327.1,-0.7,1.8,2470.407,13.32,0.021,45.0
2020-08-01T04:10:03,42.805,6.029,0.005,0.011,0.033,104.0,105.0,101.0,13.4,1505.3,325.6,-0.7,1.8,2470.414,13.33,0.012,24.4
2020-08-01T04:13:03,42.805,6.029,-0.014,0.009,0.022,104.0,105.0,101.0,13.4,1505.3,326.9,-0.7,1.9,2470.423,13.33,0.016,302.7
2020-08-01T04:16:03,42.805,6.029,-0.005,0.015,0.016,103.0,105.0,100.0,13.4,1505.3,326.6,-0.7,1.8,2470.418,13.33,0.015,341.6
2020-08-01T04:19:03,42.805,6.029,0.005,0.006,0.0,104.0,106.0,100.0,13.4,1505.3,327.7,-0.7,1.8,2470.427,13.33,0.007,39.8
2020-08-01T04:22:03,42.805,6.029,-0.042,-0.003,-0.051,104.0,105.0,100.0,13.4,1505.3,325.5,-0.7,1.8,2470.435,13.33,0.042,265.9
2020-08-01T04:25:03,42.805,6.029,-0.015,0.013,-0.004,104.0,107.0,101.0,13.3,1505.3,326.9,-0.7,1.8,2470.459,13.33,0.019,310.9
2020-08-01T04:28:03,42.805,6.029,-0.01,0.001,0.009,103.0,106.0,100.0,13.3,1505.3,325.3,-0.7,1.9,2470.433,13.33,0.01,275.7
2020-08-01T04:31:03,42.805,6.029,-0.028,0.006,-0.008,105.0,106.0,101.0,13.4,1505.3,327.8,-0.7,1.8,2470.378,13.33,0.028,282.1
2020-08-01T04:34:03,42.805,6.029,-0.011,0.012,-0.014,103.0,105.0,101.0,13.3,1505.3,325.6,-0.7,1.8,2470.414,13.33,0.016,317.5
2020-08-01T04:37:03,42.805,6.029,-0.024,0.013,0.019,104.0,107.0,101.0,13.3,1505.3,328.5,-0.7,1.8,2470.349,13.33,0.027,298.4
2020-08-01T04:40:03,42.805,6.029,0.009,0.002,0.001,103.0,107.0,100.0,13.4,1505.3,326.2,-0.8,1.8,2470.421,13.33,0.009,77.5
2020-08-01T04:43:03,42.805,6.029,-0.032,0.009,-0.003,103.0,106.0,101.0,13.3,1505.4,327.7,-0.7,1.8,2470.368,13.34,0.033,285.7
2020-08-01T04:46:03,42.805,6.029,0.048,0.013,0.033,105.0,105.0,100.0,13.4,1505.3,325.0,-0.7,1.8,2470.373,13.33,0.049,74.8
2020-08-01T04:49:03,42.805,6.029,-0.021,0.001,0.002,104.0,107.0,101.0,13.4,1505.3,326.5,-0.7,1.8,2470.373,13.33,0.021,272.7
2020-08-01T04:52:03,42.805,6.029,-0.014,0.001,-0.001,104.0,106.0,101.0,13.4,1505.3,328.1,-0.7,1.9,2470.389,13.33,0.014,274.1
2020-08-01T04:55:03,42.805,6.029,0.011,0.005,0.027,104.0,107.0,101.0,13.4,1505.3,324.7,-0.7,1.8,2470.408,13.33,0.012,65.6
2020-08-01T04:58:03,42.805,6.029,-0.014,0.019,0.015,104.0,107.0,100.0,13.4,1505.4,326.8,-0.7,1.8,2470.396,13.34,0.023,323.6
2020-08-01T05:04:03,42.805,6.029,-0.008,-0.016,0.012,104.0,107.0,101.0,13.4,1505.3,325.9,-0.7,1.8,2470.426,13.31,0.017,206.6
2020-08-01T05:07:03,42.805,6.029,-0.035,0.005,-0.006,104.0,107.0,101.0,13.3,1505.3,326.4,-0.7,1.8,2470.423,13.32,0.035,278.1
2020-08-01T05:10:03,42.805,6.029,0.002,-0.022,-0.004,102.0,107.0,103.0,13.3,1505.3,326.4,-0.7,1.8,2470.414,13.33,0.022,174.8
2020-08-01T05:13:03,42.805,6.029,-0.007,0.021,0.031,104.0,107.0,101.0,13.4,1505.3,328.0,-0.7,1.8,2470.428,13.33,0.022,341.6
2020-08-01T05:16:03,42.805,6.029,0.015,0.025,0.023,105.0,106.0,100.0,13.4,1505.3,327.5,-0.7,1.9,2470.411,13.33,0.029,31.0
2020-08-01T05:19:03,42.805,6.029,0.015,0.005,0.024,104.0,107.0,101.0,13.4,1505.3,325.1,-0.7,1.8,2470.433,13.33,0.015,71.6
2020-08-01T05:22:03,42.805,6.029,-0.016,0.004,-0.01,103.0,107.0,101.0,13.4,1505.3,322.9,-0.7,1.9,2470.435,13.33,0.016,284.0
2020-08-01T05:25:03,42.805,6.029,0.023,0.01,0.073,104.0,106.0,101.0,13.4,1505.3,326.2,-0.7,1.8,2470.441,13.33,0.025,66.5
2020-08-01T05:28:03,42.805,6.029,-0.023,-0.009,0.008,104.0,107.0,99.0,13.4,1505.3,325.3,-0.7,1.8,2470.437,13.33,0.024,248.6
2020-08-01T05:31:03,42.805,6.029,-0.006,-0.006,0.01,105.0,105.0,100.0,13.4,1505.3,327.7,-0.7,1.8,2470.394,13.33,0.008,225.0
2020-08-01T05:34:03,42.805,6.029,0.0,0.008,0.011,104.0,106.0,99.0,13.3,1505.3,326.0,-0.7,1.8,2470.403,13.33,0.008,0.0
2020-08-01T05:37:03,42.805,6.029,-0.004,0.019,0.007,102.0,105.0,102.0,13.4,1505.3,323.2,-0.7,1.8,2470.363,13.33,0.019,348.1
2020-08-01T05:40:03,42.805,6.029,-0.015,0.008,0.0,104.0,106.0,100.0,13.4,1505.3,323.5,-0.7,1.9,2470.394,13.33,0.017,298.1
2020-08-01T05:43:03,42.805,6.029,-0.034,-0.014,-0.03,103.0,105.0,101.0,13.4,1505.3,324.0,-0.7,1.8,2470.39,13.33,0.036,247.6
2020-08-01T05:46:03,42.805,6.029,-0.032,0.019,-0.025,104.0,106.0,100.0,13.4,1505.3,328.1,-0.7,1.8,2470.384,13.33,0.037,300.7
2020-08-01T05:49:03,42.805,6.029,-0.046,-0.004,-0.033,104.0,106.0,101.0,13.4,1505.3,325.9,-0.7,1.8,2470.395,13.33,0.046,265.0
2020-08-01T05:52:03,42.805,6.029,-0.007,-0.008,0.019,104.0,107.0,101.0,13.3,1505.3,322.8,-0.7,1.8,2470.405,13.33,0.01,221.2
2020-08-01T05:55:03,42.805,6.029,-0.024,-0.004,-0.005,102.0,105.0,101.0,13.4,1505.3,325.7,-0.7,1.8,2470.39,13.33,0.024,260.5
2020-08-01T05:58:03,42.805,6.029,-0.015,0.023,0.023,102.0,106.0,100.0,13.4,1505.3,322.9,-0.7,1.8,2470.401,13.33,0.027,326.9
2020-08-01T06:04:03,42.805,6.029,-0.039,-0.016,-0.025,102.0,107.0,102.0,13.3,1505.3,327.2,-0.7,1.8,2470.401,13.31,0.042,247.7
2020-08-01T06:07:03,42.805,6.029,-0.035,0.021,0.01,102.0,106.0,100.0,13.4,1505.3,327.6,-0.7,1.8,2470.452,13.32,0.04,301.0
2020-08-01T06:10:03,42.805,6.029,-0.018,0.001,-0.003,104.0,104.0,102.0,13.4,1505.3,323.7,-0.7,1.8,2470.388,13.32,0.018,273.2
2020-08-01T06:13:03,42.805,6.029,-0.005,0.015,-0.004,104.0,105.0,101.0,13.4,1505.3,327.2,-0.7,1.8,2470.447,13.33,0.015,341.6
2020-08-01T06:16:03,42.805,6.029,-0.02,0.006,0.014,103.0,107.0,100.0,13.3,1505.3,326.5,-0.7,1.8,2470.433,13.33,0.02,286.7
2020-08-01T06:19:03,42.805,6.029,-0.021,0.0,-0.034,104.0,107.0,101.0,13.4,1505.3,323.6,-0.7,1.8,2470.412,13.33,0.021,270.0
2020-08-01T06:22:03,42.805,6.029,0.0,0.004,0.03,102.0,108.0,102.0,13.4,1505.3,328.3,-0.7,1.8,2470.415,13.33,0.004,0.0
2020-08-01T06:25:03,42.805,6.029,0.008,0.004,0.006,104.0,109.0,101.0,13.4,1505.3,324.8,-0.7,1.9,2470.381,13.33,0.008,63.4
2020-08-01T06:28:03,42.805,6.029,0.01,0.005,0.039,104.0,108.0,102.0,13.4,1505.3,326.5,-0.7,1.8,2470.436,13.33,0.011,63.4
2020-08-01T06:31:03,42.805,6.029,0.037,0.0,0.061,105.0,108.0,102.0,13.3,1505.3,324.6,-0.7,1.8,2470.414,13.33,0.037,90.0
2020-08-01T06:34:03,42.805,6.029,0.012,0.003,0.008,105.0,110.0,101.0,13.3,1505.4,326.8,-0.7,1.8,2470.379,13.34,0.012,76.0
2020-08-01T06:37:03,42.805,6.029,-0.012,0.01,-0.024,105.0,108.0,102.0,13.3,1505.3,324.1,-0.7,1.9,2470.392,13.33,0.015,309.8
2020-08-01T06:40:03,42.805,6.029,0.005,-0.019,0.032,105.0,109.0,102.0,13.4,1505.3,324.5,-0.7,1.8,2470.419,13.33,0.019,165.3
2020-08-01T06:43:03,42.805,6.029,0.009,-0.017,-0.003,105.0,107.0,102.0,13.4,1505.3,323.8,-0.7,1.8,2470.373,13.33,0.019,152.1
2020-08-01T06:46:03,42.805,6.029,-0.007,-0.014,-0.008,104.0,107.0,102.0,13.4,1505.3,326.7,-0.7,1.8,2470.407,13.33,0.015,206.6
2020-08-01T06:49:03,42.805,6.029,-0.028,-0.01,-0.016,107.0,107.0,101.0,13.3,1505.3,326.8,-0.7,1.9,2470.39,13.33,0.029,250.4
2020-08-01T06:52:03,42.805,6.029,0.008,-0.016,0.0,106.0,110.0,103.0,13.4,1505.3,322.8,-0.7,1.8,2470.383,13.33,0.017,153.4
2020-08-01T06:55:03,42.805,6.029,-0.036,0.018,-0.002,106.0,108.0,103.0,13.4,1505.3,325.3,-0.7,1.8,2470.432,13.33,0.04,296.6
2020-08-01T06:58:03,42.805,6.029,-0.009,-0.01,0.023,104.0,107.0,102.0,13.3,1505.3,327.4,-0.7,1.8,2470.349,13.33,0.013,222.0
2020-08-01T07:04:03,42.805,6.029,-0.031,0.005,-0.027,104.0,107.0,102.0,13.4,1505.3,327.9,-0.7,1.8,2470.437,13.31,0.031,279.2
2020-08-01T07:07:03,42.805,6.029,-0.04,0.002,-0.025,104.0,108.0,102.0,13.4,1505.3,322.8,-0.7,1.8,2470.38,13.32,0.04,272.9
2020-08-01T07:10:03,42.805,6.029,-0.018,-0.006,0.011,105.0,107.0,101.0,13.4,1505.3,324.5,-0.7,1.8,2470.389,13.32,0.018,251.6
2020-08-01T07:13:03,42.805,6.029,-0.05,0.006,-0.026,104.0,105.0,102.0,13.4,1505.3,323.2,-0.7,1.8,2470.41,13.33,0.05,276.8
2020-08-01T07:16:03,42.805,6.029,-0.038,0.015,0.016,103.0,107.0,102.0,13.3,1505.3,326.8,-0.7,1.8,2470.392,13.33,0.04,291.5
2020-08-01T07:19:03,42.805,6.029,-0.028,0.006,-0.007,103.0,106.0,102.0,13.3,1505.3,324.5,-0.7,1.8,2470.392,13.33,0.028,282.1
2020-08-01T07:22:03,42.805,6.029,-0.044,0.006,-0.025,103.0,107.0,101.0,13.3,1505.3,326.3,-0.7,1.8,2470.416,13.33,0.044,277.8
2020-08-01T07:25:03,42.805,6.029,-0.04,0.013,0.013,104.0,107.0,106.0,13.3,1505.3,323.4,-0.7,1.8,2470.371,13.33,0.042,288.0
2020-08-01T07:28:03,42.805,6.029,-0.021,0.019,-0.004,105.0,105.0,101.0,13.4,1505.3,325.1,-0.7,1.8,2470.352,13.33,0.028,312.1
2020-08-01T07:31:03,42.805,6.029,-0.041,-0.002,-0.028,104.0,108.0,100.0,13.4,1505.3,326.2,-0.7,1.8,2470.383,13.33,0.041,267.2
2020-08-01T07:34:03,42.805,6.029,-0.044,0.01,-0.039,105.0,108.0,102.0,13.3,1505.3,323.7,-0.7,1.8,2470.354,13.33,0.045,282.8
2020-08-01T07:37:03,42.805,6.029,-0.025,0.001,0.012,104.0,108.0,102.0,13.4,1505.3,326.4,-0.7,1.8,2470.427,13.33,0.025,272.3
2020-08-01T07:40:03,42.805,6.029,-0.041,-0.004,-0.021,106.0,107.0,101.0,13.4,1505.3,324.8,-0.7,1.8,2470.364,13.33,0.041,264.4
2020-08-01T07:43:03,42.805,6.029,-0.016,0.003,-0.013,105.0,107.0,102.0,13.3,1505.3,327.9,-0.7,1.8,2470.389,13.33,0.016,280.6
2020-08-01T07:46:03,42.805,6.029,-0.03,-0.006,-0.016,105.0,107.0,101.0,13.3,1505.3,327.1,-0.7,1.8,2470.42,13.33,0.03,258.7
2020-08-01T07:49:03,42.805,6.029,-0.023,0.016,0.008,105.0,107.0,101.0,13.3,1505.3,323.0,-0.7,1.8,2470.389,13.33,0.028,304.8
2020-08-01T07:52:03,42.805,6.029,-0.047,0.004,0.003,105.0,107.0,101.0,13.4,1505.3,326.5,-0.7,1.8,2470.35,13.33,0.047,274.9
2020-08-01T07:55:03,42.805,6.029,-0.022,-0.007,-0.007,104.0,107.0,102.0,13.4,1505.3,327.8,-0.7,1.8,2470.379,13.33,0.023,252.4
2020-08-01T07:58:03,42.805,6.029,-0.052,0.008,-0.001,105.0,107.0,103.0,13.4,1505.3,327.2,-0.7,1.8,2470.362,13.33,0.052,278.7
2020-08-01T08:04:03,42.805,6.029,-0.015,-0.002,0.011,105.0,107.0,102.0,13.4,1505.3,326.4,-0.7,1.8,2470.401,13.31,0.015,262.4
2020-08-01T08:07:03,42.805,6.029,-0.01,-0.005,-0.007,105.0,106.0,103.0,13.4,1505.3,325.7,-0.7,1.9,2470.396,13.32,0.011,243.4
2020-08-01T08:10:03,42.805,6.029,-0.018,0.01,0.005,104.0,108.0,104.0,13.4,1505.3,326.4,-0.7,1.8,2470.356,13.33,0.02,299.1
2020-08-01T08:13:03,42.805,6.029,-0.044,0.022,-0.021,105.0,107.0,102.0,13.3,1505.3,327.0,-0.7,1.8,2470.39,13.33,0.049,296.6
2020-08-01T08:16:03,42.805,6.029,-0.014,-0.012,-0.017,105.0,108.0,102.0,13.4,1505.3,326.7,-0.7,1.8,2470.395,13.33,0.018,229.4
2020-08-01T08:19:03,42.805,6.029,-0.018,0.019,-0.011,104.0,106.0,102.0,13.4,1505.3,327.5,-0.7,1.8,2470.393,13.33,0.026,316.5
2020-08-01T08:22:03,42.805,6.029,-0.011,0.012,0.018,104.0,106.0,101.0,13.4,1505.3,327.7,-0.7,1.8,2470.339,13.33,0.016,317.5
2020-08-01T08:25:03,42.805,6.029,-0.007,0.007,0.014,104.0,107.0,102.0,13.4,1505.3,327.8,-0.7,1.8,2470.346,13.33,0.009,315.0
2020-08-01T08:28:03,42.805,6.029,-0.057,-0.013,-0.034,104.0,105.0,102.0,13.3,1505.3,326.1,-0.7,1.9,2470.318,13.33,0.058,257.2
2020-08-01T08:31:03,42.805,6.029,-0.072,0.0,-0.06,104.0,107.0,101.0,13.4,1505.3,325.4,-0.7,1.8,2470.35,13.33,0.071,270.0
2020-08-01T08:34:03,42.805,6.029,-0.028,0.009,0.015,104.0,106.0,101.0,13.4,1505.3,326.5,-0.7,1.8,2470.334,13.33,0.029,287.8
2020-08-01T08:37:03,42.805,6.029,0.001,0.009,0.017,105.0,106.0,102.0,13.4,1505.3,325.8,-0.7,1.8,2470.321,13.33,0.009,6.3
2020-08-01T08:40:03,42.805,6.029,-0.049,0.008,-0.024,104.0,106.0,102.0,13.3,1505.3,328.0,-0.7,1.8,2470.314,13.33,0.049,279.3
2020-08-01T08:43:03,42.805,6.029,-0.004,-0.006,-0.002,103.0,109.0,100.0,13.4,1505.3,322.8,-0.7,1.8,2470.316,13.33,0.007,213.7
2020-08-01T08:46:03,42.805,6.029,-0.019,0.005,0.005,105.0,107.0,101.0,13.4,1505.3,325.2,-0.7,1.9,2470.324,13.33,0.019,284.7
2020-08-01T08:49:03,42.805,6.029,-0.026,0.003,-0.001,102.0,107.0,102.0,13.3,1505.3,326.1,-0.7,1.8,2470.323,13.33,0.026,276.6
2020-08-01T08:52:03,42.805,6.029,0.009,0.003,0.008,104.0,108.0,102.0,13.4,1505.3,326.1,-0.7,1.8,2470.323,13.33,0.009,71.6
2020-08-01T08:55:03,42.805,6.029,0.013,-0.003,0.046,103.0,107.0,100.0,13.4,1505.3,328.2,-0.7,1.8,2470.339,13.33,0.013,103.0
2020-08-01T08:58:03,42.805,6.029,-0.004,0.001,0.009,104.0,107.0,100.0,13.4,1505.3,327.3,-0.7,1.8,2470.334,13.33,0.004,284.0
2020-08-01T09:04:03,42.805,6.029,0.01,-0.016,0.003,103.0,107.0,100.0,13.4,1505.3,327.1,-0.7,1.8,2470.357,13.32,0.018,148.0
2020-08-01T09:07:03,42.805,6.029,-0.011,0.004,0.027,103.0,109.0,101.0,13.4,1505.3,327.0,-0.7,1.8,2470.394,13.32,0.011,290.0
2020-08-01T09:10:03,42.805,6.029,-0.05,0.0,-0.015,103.0,105.0,101.0,13.3,1505.3,327.7,-0.7,1.8,2470.302,13.33,0.05,270.0
2020-08-01T09:13:03,42.805,6.029,-0.035,-0.014,-0.02,104.0,108.0,101.0,13.3,1505.3,326.2,-0.7,1.8,2470.392,13.33,0.037,248.2
2020-08-01T09:16:03,42.805,6.029,0.007,0.0,0.009,103.0,107.0,101.0,13.4,1505.3,325.3,-0.7,1.8,2470.321,13.33,0.007,90.0
2020-08-01T09:19:03,42.805,6.029,0.008,-0.005,0.02,103.0,108.0,101.0,13.3,1505.3,326.4,-0.7,1.8,2470.321,13.33,0.009,122.0
2020-08-01T09:22:03,42.805,6.029,-0.008,0.015,-0.018,104.0,106.0,100.0,13.4,1505.3,327.5,-0.7,1.8,2470.333,13.33,0.017,331.9
2020-08-01T09:25:03,42.805,6.029,-0.028,0.0,0.003,102.0,107.0,100.0,13.4,1505.3,325.9,-0.7,1.8,2470.357,13.33,0.028,270.0
2020-08-01T09:28:03,42.805,6.029,-0.042,0.025,-0.011,103.0,107.0,101.0,13.3,1505.3,325.9,-0.7,1.8,2470.313,13.33,0.048,300.8
2020-08-01T09:31:03,42.805,6.029,0.001,0.01,0.022,105.0,108.0,100.0,13.4,1505.3,327.9,-0.7,1.8,2470.331,13.33,0.01,5.7
2020-08-01T09:34:03,42.805,6.029,-0.013,-0.008,0.006,103.0,106.0,101.0,13.4,1505.3,325.5,-0.7,1.8,2470.33,13.33,0.015,238.4
2020-08-01T09:37:03,42.805,6.029,0.011,0.018,0.035,105.0,108.0,101.0,13.4,1505.4,323.0,-0.7,1.8,2470.316,13.34,0.021,31.4
2020-08-01T09:40:03,42.805,6.029,0.008,0.002,0.045,104.0,107.0,101.0,13.3,1505.4,326.4,-0.7,1.8,2470.282,13.34,0.008,76.0
2020-08-01T09:43:03,42.805,6.029,0.009,-0.005,-0.004,104.0,106.0,102.0,13.4,1505.4,326.9,-0.7,1.8,2470.305,13.34,0.01,119.1
2020-08-01T09:46:03,42.805,6.029,-0.02,-0.013,-0.001,104.0,107.0,101.0,13.4,1505.4,323.3,-0.7,1.8,2470.272,13.34,0.023,237.0
2020-08-01T09:49:03,42.805,6.029,0.01,0.002,0.018,105.0,108.0,101.0,13.4,1505.3,326.7,-0.7,1.8,2470.288,13.33,0.01,78.7
2020-08-01T09:52:03,42.805,6.029,-0.026,-0.009,0.005,105.0,109.0,101.0,13.4,1505.3,326.4,-0.7,1.8,2470.309,13.33,0.027,250.9
2020-08-01T09:55:03,42.805,6.029,-0.013,-0.016,-0.013,105.0,107.0,102.0,13.4,1505.3,327.8,-0.7,1.8,2470.29,13.33,0.02,219.1